Location: Ostrava
(49.8330°N, 18.2830°E)
Time: 14:39:05
(UTC+02:00)

Cosmos 1400 Rocket - Visible Passes

Search period start: 25 May 2017 00:00
Search period end: 04 June 2017 00:00
Orbit: 523 x 570 km, 81.2° (Epoch: 24 May)

Date Brightness Start Highest point End Pass type
(mag) Time Alt. Az. Time Alt. Az. Time Alt. Az.
25 May 5.2 04:00:02 10° SE 04:03:06 22° E 04:06:11 10° NE visible
26 May 5.0 03:54:31 10° SE 03:57:41 24° E 04:00:53 10° NE visible
27 May 4.9 03:49:02 10° SSE 03:52:16 25° E 03:55:36 10° NE visible
28 May 4.8 03:43:31 10° SSE 03:46:52 27° E 03:50:16 10° NNE visible
29 May 4.6 03:38:02 10° SSE 03:41:28 29° E 03:44:57 10° NNE visible
30 May 4.5 03:32:33 10° SSE 03:36:04 32° E 03:39:38 10° NNE visible
31 May 4.3 03:27:05 10° SSE 03:30:40 34° E 03:34:19 10° NNE visible
01 Jun 4.1 03:21:37 10° SSE 03:25:16 37° E 03:28:59 10° NNE visible
02 Jun 4.0 03:16:10 10° SSE 03:19:52 39° E 03:23:39 10° NNE visible
03 Jun 3.8 03:10:43 10° SSE 03:14:28 43° E 03:18:18 10° NNE visible
